China Lake, CA

3:53 AM PDT on May 28, 2017 (GMT -0700)
China Lake NAWS

Weather History for KNID - August, 2012

Change the Weather History Date:

Thursday, August 30, 2012

  Actual Average Record
Temperature  
Mean Temperature 87 °F -  
Max Temperature 102 °F 95 °F 109 °F (1996)
Min Temperature 72 °F 68 °F 52 °F (2010)
Cooling Degree Days 22    
Growing Degree Days 37 (Base 50)    
Moisture  
Dew Point 50 °F    
Average Humidity 29    
Maximum Humidity 45    
Minimum Humidity 15    
Precipitation  
Precipitation 0.00 in - - ()
Sea Level Pressure  
Sea Level Pressure 29.75 in    
Wind  
Wind Speed 10 mph (South)    
Max Wind Speed 33 mph    
Max Gust Speed 43 mph    
Visibility 10 miles    
Events Thunderstorm    
Averages and records for this station are not official NWS values.
T = Trace of Precipitation, MM = Missing Value Source: NWS Daily Summary

Daily Weather History Graph

Daily Weather History Graph

Search for Another Location

Airport or City:

Trip Planner

Search our weather history database for the weather conditions in past years. The results will help you decide how hot, cold, wet, or windy it might be!

Date:

Astronomy

Aug. 30, 2012 Rise Set
Actual Time 6:21 AM PDT 7:20 PM PDT
Civil Twilight 5:55 AM PDT 7:46 PM PDT
Nautical Twilight 5:24 AM PDT 8:17 PM PDT
Astronomical Twilight 4:52 AM PDT 8:49 PM PDT
Moon 6:38 PM PDT (8/30) 5:27 AM PDT (8/30)
Length of Visible Light 13h 50m
Length of Day
12h 58m
Waxing Gibbous, 99% of the Moon is Illuminated
Aug 30
Waxing Gibbous
Aug 31
Full
Sep 8
Last Quarter
Sep 15
New
Sep 22
First Quarter

Hourly Weather History & Observations

Time (PDT) Temp. Heat Index Dew Point Humidity Pressure Visibility Wind Dir Wind Speed Gust Speed Precip Events Conditions
12:56 AM 82.9 °F - 42.1 °F 24% 29.75 in 10.0 mi South 10.4 mph - N/A   Clear
1:56 AM 82.0 °F - 41.0 °F 23% 29.75 in 10.0 mi South 6.9 mph - N/A   Clear
2:56 AM 79.0 °F - 43.0 °F 28% 29.74 in 10.0 mi SSW 10.4 mph - N/A   Clear
3:56 AM 77.0 °F - 44.1 °F 31% 29.74 in 10.0 mi South 5.8 mph - N/A   Clear
4:56 AM 75.9 °F - 45.0 °F 33% 29.75 in 10.0 mi Calm Calm - N/A   Clear
5:56 AM 72.0 °F - 45.0 °F 38% 29.76 in 10.0 mi Calm Calm - N/A   Partly Cloudy
6:56 AM 72.0 °F - 45.0 °F 38% 29.78 in 10.0 mi Calm Calm - N/A   Partly Cloudy
7:56 AM 80.1 °F - 46.0 °F 30% 29.78 in 10.0 mi SW 8.1 mph - N/A   Partly Cloudy
8:56 AM 87.1 °F - 45.0 °F 23% 29.78 in 10.0 mi SW 4.6 mph - N/A   Clear
9:56 AM 91.9 °F - 45.0 °F 20% 29.80 in 10.0 mi Calm Calm - N/A   Clear
10:56 AM 96.1 °F - 43.0 °F 16% 29.78 in 10.0 mi Variable 4.6 mph - N/A   Partly Cloudy
11:56 AM 100.9 °F - 46.9 °F 16% 29.77 in 10.0 mi SSE 13.8 mph 20.7 mph N/A   Partly Cloudy
12:56 PM 100.0 °F - 50.0 °F 18% 29.75 in 10.0 mi SSE 13.8 mph 24.2 mph N/A   Scattered Clouds
1:56 PM 100.9 °F - 46.9 °F 16% 29.72 in 10.0 mi South 11.5 mph 19.6 mph N/A   Partly Cloudy
2:56 PM 100.9 °F - 46.0 °F 15% 29.70 in 10.0 mi Calm Calm - N/A   Partly Cloudy
3:56 PM 102.9 °F - 46.9 °F 15% 29.67 in 10.0 mi South 13.8 mph 18.4 mph N/A   Mostly Cloudy
4:42 PM 93.2 °F 91.3 °F 55.4 °F 28% 29.76 in 10.0 mi SSE 33.4 mph 41.4 mph N/A   Mostly Cloudy
4:56 PM 93.0 °F 91.4 °F 55.9 °F 29% 29.69 in 10.0 mi SSE 32.2 mph 42.6 mph N/A Thunderstorm Thunderstorm
5:56 PM 89.1 °F 88.2 °F 59.0 °F 36% 29.73 in 10.0 mi SSE 25.3 mph 34.5 mph N/A Thunderstorm Thunderstorm
6:47 PM 89.6 °F 88.1 °F 57.2 °F 33% 29.81 in 10.0 mi SSW 21.9 mph 31.1 mph N/A   Mostly Cloudy
6:56 PM 90.0 °F 88.6 °F 57.0 °F 33% 29.75 in 10.0 mi SSW 24.2 mph 33.4 mph N/A   Mostly Cloudy
7:56 PM 84.9 °F 83.9 °F 57.0 °F 38% 29.75 in 10.0 mi SSW 16.1 mph 26.5 mph N/A   Mostly Cloudy
8:56 PM 84.9 °F 84.2 °F 57.9 °F 40% 29.75 in 10.0 mi SSW 18.4 mph 25.3 mph N/A   Clear
9:56 PM 82.9 °F 82.1 °F 55.9 °F 39% 29.75 in 10.0 mi SSW 10.4 mph - N/A   Clear
10:56 PM 81.0 °F 80.8 °F 55.9 °F 42% 29.76 in 10.0 mi SSW 8.1 mph - N/A   Clear
11:56 PM 80.1 °F 80.4 °F 57.0 °F 45% 29.75 in 10.0 mi SW 8.1 mph - N/A   Clear